Regional Weather Roundup
Issued by NWS Cleveland, OH

Home | Current Version | Previous Version | Text Only | Print | Product List | Glossary Off
Versions: 1 2 3 4 5 6 7 8 9 10 11 12 13 14 15 16 17 18 19 20 21 22 23 24 25 26 27 28 29 30 31 32 33 34 35 36 37 38 39 40 41 42 43 44 45 46 47 48 49 50

009
ASUS41 KCLE 181602
RWRCLE
OHIO REGIONAL WEATHER ROUNDUP
NATIONAL WEATHER SERVICE CLEVELAND, OH
1100 AM EST SAT NOV 18 2017

NOTE: "FAIR" INDICATES FEW OR NO CLOUDS BELOW 12,000 FEET WITH NO
SIGNIFICANT WEATHER AND/OR OBSTRUCTIONS TO VISIBILITY.

OHZ001>008-015>018-024>027-034-035-043-044-181700-
   NORTHWEST OHIO

CITY           SKY/WX    TMP DP  RH WIND       PRES   REMARKS
DEFIANCE       RAIN      48  46  93 E7        29.39F FOG
FINDLAY        HVY RAIN  52  48  86 S15       29.44F FOG
TOLEDO EXPRESS RAIN      49  49 100 VRB7      29.43F FOG
TOLEDO EXEC    LGT RAIN  48  47  96 SE12      29.45F FOG
LIMA           HVY RAIN  52  51  97 S13       29.42F FOG
$$

OHZ009>014-019>023-028>033-038-089-181700-
   NORTHEAST OHIO

CITY           SKY/WX    TMP DP  RH WIND       PRES   REMARKS
CLE-HOPKINS    CLOUDY    49  46  90 S12       29.52F
CLE-LAKEFRONT  CLOUDY    48  44  86 SE15      29.48F
CUY CO. ARPT   CLOUDY    50  46  87 S17G23    29.51S
LORAIN-ELYRIA  LGT RAIN  46  41  82 S10       29.50S
ASHTABULA      CLOUDY    43  42  97 S12       29.53F
AKRON-CANTON   CLOUDY    47  43  86 S14       29.53F
WOOSTER        LGT RAIN  47  45  93 S9        29.52F
MANSFIELD      LGT RAIN  50  49  96 S15       29.51S
YOUNGSTOWN     CLOUDY    44  43  96 S8        29.55F
$$

OHZ042-051>053-060>062-070>072-077>081-181700-
  SOUTHWEST OHIO

CITY           SKY/WX    TMP DP  RH WIND       PRES   REMARKS
CINC-COVINGTON CLOUDY    61  55  81 S22G37    29.46F
CINC-LUNKEN    CLOUDY    63  54  72 SW21G32   29.49F
HAMILTON       CLOUDY    62  53  72 S10G28    29.47F
DAYTON         CLOUDY    58  53  84 S22G29    29.44F
WRIGHT-PAT AFB CLOUDY    60  52  75 S17G26    29.44F
DAYTON GENERAL CLOUDY    59  51  75 SW18G30   29.45F
WILMINGTON     CLOUDY    58  51  78 S20G26    29.48F
$$

OHZ036-037-039>041-045>050-054>059-063>069-073>076-082>088-181700-
  CENTRAL AND SOUTHEAST OHIO

CITY           SKY/WX    TMP DP  RH WIND       PRES   REMARKS
COLUMBUS       CLOUDY    53  49  86 SE9       29.50F
OSU AIRPORT    LGT RAIN  50  49  96 E7        29.49F
BOLTON FIELD   CLOUDY    55  48  76 S14       29.50F
RICKENBACK AFB CLOUDY    57  50  76 SW16G25   29.50F
NEWARK         CLOUDY    49  44  83 E3        29.52F
MARION         HVY RAIN  50  48  93 S10       29.50S FOG
LANCASTER      CLOUDY    56  48  74 S7        29.52F
ZANESVILLE     CLOUDY    50  43  77 SE8       29.55F
NEW PHILLY     NOT AVBL
$$




USA.gov is the U.S. government's official web portal to all federal, state and local government web resources and services.